Location: Allentsteig
(48.6833°N, 15.3167°E)
Time: 06:32:57
(UTC+00:00)

USA 238 DEB - Pass Details

Date: 19 January 2021
Orbit: 992 x 1220 km, 63.4° (Epoch: 05 March)

Event Time Altitude Azimuth Distance (km) Brightness Sun altitude
Rises 04:31:11 0° 161° (SSE) 3,709 6.9 -21.3°
Reaches altitude 10° 04:34:53 10° 139° (SE) 2,787 6.5 -20.7°
Maximum altitude 04:38:29 16° 105° (ESE) 2,437 6.6 -20.1°
Drops below altitude 10° 04:42:09 10° 72° (ENE) 2,864 6.9 -19.5°
Sets 04:46:01 0° 52° (NE) 3,868 7.3 -18.9°
